Other Public Products
Issued by NWS Grand Forks, ND

Home | Current Version | Previous Version | Graphics & Text | Print | Product List | Glossary On
Versions: 1 2 3 4 5 6 7 8 9 10 11 12 13 14 15 16 17 18 19 20 21 22 23 24 25 26 27 28 29 30 31 32 33 34 35 36 37 38 39 40 41 42 43 44 45 46 47 48 49 50
000
FPUS83 KFGF 290031
OPUFGF
PRAIRIE TO PINES WEATHER ROUNDUP
NATIONAL WEATHER SERVICE EASTERN NORTH DAKOTA/GRAND FORKS ND
700 PM CDT SAT MAR 28 2015

 **SATELLITE DATA USED TO AUGMENT SKY COVER AT AUTOMATED STATIONS**
 *****  WEATHER ACROSS EASTERN NORTH DAKOTA  *****

CITY           SKY/WX    TMP DP  RH WIND       PRES   REMARKS
GRAND FORKS    MOCLDY    49  32  52 S24G37    29.68F
6HR MIN TEMP:  44; 6HR MAX TEMP:  50;

GRAND FORKS AF MOCLDY    48  33  54 S23G31    29.66F
GRAND CITY NWS   N/A     46 N/A N/A S24         N/A
BUXTON         NOT AVBL
DEVILS LAKE    CLOUDY    48  37  66 S22G28    29.54F
6HR MIN TEMP:  39; 6HR MAX TEMP:  50;

FARGO          MOCLDY    52  29  41 S24G40    29.76F
6HR MIN TEMP:  46; 6HR MAX TEMP:  54; 6HR PCP: TRACE;

WAHPETON ARPT  PTCLDY    48  28  46 S23       29.80F
$$

 *****  WEATHER ACROSS CENTRAL AND WESTERN NORTH DAKOTA  *****

CITY           SKY/WX    TMP DP  RH WIND       PRES   REMARKS
JAMESTOWN      PTCLDY    50  34  54 S24G31    29.63F
6HR MIN TEMP:  40; 6HR MAX TEMP:  54;

BISMARCK       CLOUDY    63  36  36 S18G29    29.51F
6HR MIN TEMP:  53; 6HR MAX TEMP:  68;

MINOT          PTSUNNY   64  40  41 S22G37    29.38F
6HR MIN TEMP:  52; 6HR MAX TEMP:  69; 6HR PCP: TRACE;

MINOT AFB      CLOUDY    65  45  48 S16G28    29.35F
6HR MIN TEMP:  51; 6HR MAX TEMP:  66;

GARRISON         N/A     64  39  39 S18G25    29.41F
6HR MIN TEMP:  48; 6HR MAX TEMP:  67; 6HR PCP:  0.01;

WILLISTON      CLOUDY    61  45  55 W33G46    29.51R
6HR MIN TEMP:  61; 6HR MAX TEMP:  79; 6HR PCP: TRACE;

DICKINSON      LGT RAIN  57  47  69 NW32G43   29.54R
6HR MIN TEMP:  57; 6HR MAX TEMP:  80; 6HR PCP: TRACE;

HETTINGER      LGT RAIN  58  46  64 NW36G64   29.57R
6HR MIN TEMP:  67; 6HR MAX TEMP:  80;

$$

 *****  OTHER OBSERVATIONS NORTHEAST NORTH DAKOTA  *****

CITY           SKY/WX    TMP DP  RH WIND       PRES   REMARKS
WALHALLA         N/A     46  37  71 S18G29    29.56F
LANGDON        NOT AVBL
CAVALIER       FAIR      45  36  70 S22G28    29.58F
GRAFTON        NOT AVBL
CANDO          FAIR      46  37  71 S16G23    29.53F
FORT TOTTEN      N/A     50  36  58 S20       29.95S
ROLLA          FAIR      46  41  81 S20G25    29.49F
RUGBY            N/A     52  39  62 S17G25    29.45F
 ***** THE ABOVE OBSERVATIONS ARE NON NWS ARE NOT QUALITY
        CONTROLLED AND MAY MIS-REPORT RAIN FOR SNOW...
$$

 *****  OTHER OBSERVATIONS SOUTHEAST NORTH DAKOTA *****

CITY           SKY/WX    TMP DP  RH WIND       PRES   REMARKS
COOPERSTOWN    NOT AVBL
VALLEY CITY    FAIR      50  32  50 S20G32    29.66F
OAKES            N/A     52  34  50 S23       29.70F
GWINNER        CLEAR     52  32  46 S21G26      N/A
SHEYENNE NWR     N/A     53  31  43 S20       29.95
BUFFALO        NOT AVBL
WYNDMERE         N/A     52  34  50 S14         N/A
 ***** THE ABOVE OBSERVATIONS ARE NON NWS ARE NOT QUALITY
       CONTROLLED AND MAY MIS-REPORT RAIN FOR SNOW...
$$

  *****  WEATHER ACROSS NORTHERN MINNESOTA  *****

CITY           SKY/WX    TMP DP  RH WIND       PRES   REMARKS
FLAG ISLAND    CLOUDY    36  28  75 S15       29.71F
WARROAD        CLOUDY    43  28  56 S14G21    29.73F
ROSEAU         CLOUDY    43  30  61 S23       29.72F
HALLOCK        CLOUDY    45  30  57 S23G32    29.65F
THF RVR FALLS  CLOUDY    43  28  56 S20G25    29.74F
6HR MIN TEMP:  41; 6HR MAX TEMP:  46;

HALSTAD          N/A     49  25  39 S33         N/A
FOSSTON        CLOUDY    39  27  60 S23G31    29.78F
BAUDETTE       CLOUDY    42  24  49 S21G30    29.76F
6HR MIN TEMP:  40; 6HR MAX TEMP:  45;

WASKISH        CLOUDY    43  25  49 S7G20     29.80F
CROOKSTON      CLOUDY    46  30  53 S26G37    29.73F
$$
  *****  WEATHER ACROSS CENTRAL AND WEST MINNESOTA  *****

CITY           SKY/WX    TMP DP  RH WIND       PRES   REMARKS
BEMIDJI        MOCLDY    40  25  55 S17G26    29.82F
PARK RAPIDS    PTCLDY    42  25  50 S23G29    29.88F
6HR MIN TEMP:  42; 6HR MAX TEMP:  49;

WADENA         PTCLDY    39  27  60 S13G21    29.87F
DETROIT LAKES  MOCLDY    41  30  65 S18G26    29.83F
MOORHEAD       MOCLDY    48  28  46 S25G31    29.78F
FERGUS FALLS   MOCLDY    45  27  49 S24G30    29.86F
ELBOW LAKE     FAIR      43  31  62 SE24G31   29.84F
MORRIS MN      CLEAR     45  34  65 SE21      29.85F
STAPLES        PTCLDY    37  25  60 S16       29.92F
WHEATON        PTCLDY    46  30  53 S15G23    29.84F
$$
  *****  WEATHER ELSEWHERE ACROSS MINNESOTA  *****

CITY           SKY/WX    TMP DP  RH WIND       PRES   REMARKS
DULUTH         PTCLDY    40  13  33 SW14      29.97F
6HR MIN TEMP:  38; 6HR MAX TEMP:  44;

INTRNTL FALLS  MOCLDY    42  16  34 VRB7G20   29.83F
6HR MIN TEMP:  40; 6HR MAX TEMP:  45;

ELY            PTCLDY    39   7  26 S12G17    29.90F
CLOQUET        PTCLDY    39  10  30 S13       29.98S
BRAINERD       PTCLDY    39  21  48 S16G30    29.96F
6HR MIN TEMP:  39; 6HR MAX TEMP:  44;

HIBBING        PTCLDY    40  15  36 SW12G20   29.93F
6HR MIN TEMP:  39; 6HR MAX TEMP:  44;

ALEXANDRIA     PTCLDY    42  27  55 S22G30    29.91F
6HR MIN TEMP:  37; 6HR MAX TEMP:  44;

SAINT CLOUD    CLEAR     41  22  46 S16G26    29.99F
6HR MIN TEMP:  40; 6HR MAX TEMP:  43;

MINNEAPOLIS    PTCLDY    39  21  48 S16G24    30.08F
6HR MIN TEMP:  38; 6HR MAX TEMP:  41;

$$

  *****  WEATHER ACROSS SOUTH DAKOTA  *****

CITY           SKY/WX    TMP DP  RH WIND       PRES   REMARKS
SIOUX FALLS    CLEAR     51  27  39 S21G32    29.90F
6HR MIN TEMP:  45; 6HR MAX TEMP:  53;

BROOKINGS      NOT AVBL
WATERTOWN      CLEAR     50  29  44 S22G30    29.82F
6HR MIN TEMP:  44; 6HR MAX TEMP:  52;

HURON          CLEAR     56  30  37 S23G33    29.78F
6HR MIN TEMP:  47; 6HR MAX TEMP:  57;

SISSETON         N/A     51  31  46 S18       29.80F
ABERDEEN       CLEAR     56  31  38 S23G32    29.73F
6HR MIN TEMP:  48; 6HR MAX TEMP:  58;

MITCHELL       CLEAR     56  33  42 S30G36    29.83F
PIERRE         SUNNY     66  36  32 SE18      29.60F
6HR MIN TEMP:  56; 6HR MAX TEMP:  74;

MOBRIDGE       MOSUNNY   64  36  35 S21G29    29.57F
RAPID CITY     PTSUNNY   82  21  10 W24G31    29.55F
6HR MIN TEMP:  72; 6HR MAX TEMP:  83;

$$

  *****  SOME WEATHER IN NEARBY STATES *****

CITY           SKY/WX    TMP DP  RH WIND       PRES   REMARKS
GLASGOW MT     CLOUDY    54  33  45 W25G33    29.66R
6HR MIN TEMP:  50; 6HR MAX TEMP:  75; 6HR PCP:  0.03;

GREAT FALLS MT CLOUDY    48  25  40 W28G48    29.94R
6HR MIN TEMP:  48; 6HR MAX TEMP:  56; 6HR PCP: TRACE;

CHEYENNE WY    SUNNY     70  21  15 W20G32    29.94S
6HR MIN TEMP:  69; 6HR MAX TEMP:  75;

SCOTTSBLUFF NE SUNNY     77  27  15 W12       29.75F
6HR MIN TEMP:  74; 6HR MAX TEMP:  82;

OMAHA NE       CLEAR     53  30  41 S22       30.03F
6HR MIN TEMP:  48; 6HR MAX TEMP:  54;

DES MOINES IA  PTCLDY    48  19  31 S15       30.13S
6HR MIN TEMP:  45; 6HR MAX TEMP:  50;

DAVENPORT IA   CLEAR     39  11  31 SE13      30.23F
6HR MIN TEMP:  36; 6HR MAX TEMP:  42;

CHICAGO IL     CLEAR     31  10  41 SE9       30.28S WCI  23
6HR MIN TEMP:  31; 6HR MAX TEMP:  36;

EAU CLAIRE WI  CLEAR     37   8  30 SW14      30.12F
6HR MIN TEMP:  37; 6HR MAX TEMP:  43;

LA CROSSE WI   CLEAR     40  14  34 S12       30.18F
6HR MIN TEMP:  39; 6HR MAX TEMP:  43;

$$

  *****  SOME NATIONAL WEATHER *****

CITY           SKY/WX    TMP DP  RH WIND       PRES   REMARKS
LA GUARDIA NY  MOCLDY    33  21  61 NW20G28   30.00R WCI  21



USA.gov is the U.S. government's official web portal to all federal, state and local government web resources and services.